OPS 4682 DEB, 15530

Orbit data source: Space-Track

OPS 4682 DEB, 15530 is space debris in LEO originally from a launch on Sat, 03 Apr 1965 UTC launched from the Air Force Western Test Range (AFWTR). Debris objects in space refer to the collection of defunct objects orbiting the Earth. Examples of debris include non-operational satellites, rocket bodies, and fragments generated from explosions, collisions, or faulty payload assembly.

Loading next visibility...
Identifier
15530, 1965-027T
Orbit
LEO
Country
Flag of USUS
Related business
Manufacturer
Unknown
Mission
Spacecraft
Bus & Motor
Unknown
Mass
Unknown
Launch date (UTC)
1965-04-03 (61 years ago)
Launch vehicle
Unknown
Launch site
Air Force Western Test Range (AFWTR)
Object type
Payload
Rocket body
Debris
Shape & HBR
Unknown shape, 0.1 m
Radar Cross Section
Small (<0.1 m²)

Expand to show TLE details & history
Last TLE update: 2 days ago

TLE from 2 days ago
0 OPS 4682 DEB
1 15530U 65027T   25293.74412378  .00000973  00000-0  32717-2 0  9992
2 15530  90.2814  26.4239 0030539 297.3946 217.4619 12.98572013 26574
Epoch: 2025-10-20T17:51Z
TLE epoch observation values (Epoch: 2025-10-20T17:51:32.294Z)
Latitude
25.38203°
Longitude
-90.76986°
Altitude
1,289.322 km
Speed
7.205 km/s
True Right ascension
13h 46m 13s
True Declination
25° 15' 30"
Sunlit
Object was in daylight at epoch
Visualization orbit readout
Latitude
Unknown
Longitude
Unknown
Altitude
Unknown
Speed
Unknown
Apparent Right ascension
Unknown
Apparent Declination
Unknown
Sunlit
N/A
Visualization observer readout
Local Sidereal Time
12:42:08
Azimuth
Unknown
Elevation
Unknown
Doppler factor
Unknown
Orbital elements
Apogee altitude
1,288.157 km
Perigee altitude
1,241.475 km
Semi-major axis
7,642.953 km
Eccentricity
0.00305
Inclination
90.2814°
RAAN
26.4239°
Arg. of periapsis
297.3946°
True anomaly
217.24969°
Mean anomaly
217.4619°
Eccentric anomaly
217.35573°
Mean motion
3.24826 °/min
Orbital period
110.83 mins
BSTAR
0.0032717
Loading maneuver chart data...
Computing Atmospheric mass density...
Loading historical data...
Loading historical data...
Loading historical data...
Loading historical data...
Loading historical data...
Loading historical data...
Loading historical data...

Documentation

Showing up to 5 results
|